Fairbanks Ft. Wainwright, AK

8:09 PM AKDT on June 25, 2017 (GMT -0800)
Ladd Army Air Field

Weather History for PAFB - November, 2013

Change the Weather History Date:

Sunday, November 3, 2013

  Actual Average Record
Temperature  
Mean Temperature 20 °F -  
Max Temperature 27 °F 18 °F 37 °F (2003)
Min Temperature 12 °F 6 °F -14 °F (2005)
Degree Days  
Heating Degree Days 46    
Moisture  
Dew Point 16 °F    
Average Humidity 86    
Maximum Humidity 92    
Minimum Humidity 81    
Precipitation  
Precipitation 0.00 in - - ()
Sea Level Pressure  
Sea Level Pressure 29.75 in    
Wind  
Wind Speed 1 mph (ENE)    
Max Wind Speed 7 mph    
Max Gust Speed -    
Visibility 10 miles    
Events      
Averages and records for this station are not official NWS values.
T = Trace of Precipitation, MM = Missing Value Source: NWS Daily Summary

Daily Weather History Graph

Daily Weather History Graph

Search for Another Location

Airport or City:

Trip Planner

Search our weather history database for the weather conditions in past years. The results will help you decide how hot, cold, wet, or windy it might be!

Date:

Astronomy

Nov. 03, 2013 Rise Set
Actual Time 8:46 AM AKST 4:20 PM AKST
Civil Twilight 7:50 AM AKST 5:16 PM AKST
Nautical Twilight 6:50 AM AKST 6:15 PM AKST
Astronomical Twilight 5:54 AM AKST 7:12 PM AKST
Moon 9:13 AM AKST (11/3) 4:25 PM AKST (11/3)
Length of Visible Light 9h 26m
Length of Day
7h 34m
New Moon, 0% of the Moon is Illuminated
Nov 3
New Moon
Nov 9
First Quarter
Nov 17
Full
Nov 25
Last Quarter
Dec 2
New

Hourly Weather History & Observations

Time (AKST) Temp. Windchill Dew Point Humidity Pressure Visibility Wind Dir Wind Speed Gust Speed Precip Events Conditions
12:56 AM 14.0 °F - 10.9 °F 88% 29.84 in 10.0 mi Calm Calm - N/A   Clear
1:56 AM 16.0 °F - 12.0 °F 84% 29.84 in 10.0 mi Calm Calm - N/A   Clear
1:56 AM 17.1 °F - 14.0 °F 88% 29.84 in 10.0 mi Calm Calm - N/A   Mostly Cloudy
2:56 AM 17.1 °F - 12.9 °F 84% 29.84 in 10.0 mi Calm Calm - N/A   Mostly Cloudy
3:56 AM 16.0 °F - 12.0 °F 84% 29.83 in 10.0 mi Calm Calm - N/A   Scattered Clouds
4:56 AM 17.1 °F - 12.9 °F 84% 29.81 in 10.0 mi Calm Calm - N/A   Mostly Cloudy
5:56 AM 15.1 °F - 10.9 °F 84% 29.80 in 10.0 mi Calm Calm - N/A   Partly Cloudy
6:56 AM 15.1 °F - 10.9 °F 84% 29.80 in 10.0 mi Calm Calm - N/A   Mostly Cloudy
7:56 AM 12.9 °F - 10.0 °F 88% 29.79 in 10.0 mi Calm Calm - N/A   Clear
8:56 AM 15.1 °F - 10.9 °F 84% 29.78 in 10.0 mi Calm Calm - N/A   Clear
9:56 AM 19.9 °F 12.1 °F 16.0 °F 85% 29.77 in 10.0 mi ENE 5.8 mph - N/A   Clear
10:56 AM 19.0 °F - 16.0 °F 88% 29.76 in 10.0 mi Calm Calm - N/A   Clear
11:56 AM 21.0 °F 16.2 °F 18.0 °F 88% 29.76 in 10.0 mi West 3.5 mph - N/A   Clear
12:56 PM 23.0 °F - 19.0 °F 85% 29.74 in 10.0 mi Calm Calm - N/A   Clear
1:56 PM 27.0 °F - 21.9 °F 81% 29.73 in 10.0 mi Calm Calm - N/A   Clear
2:56 PM 27.0 °F - 21.9 °F 81% 29.72 in 10.0 mi Calm Calm - N/A   Scattered Clouds
3:56 PM 24.1 °F - 21.0 °F 88% 29.70 in 10.0 mi Calm Calm - N/A   Partly Cloudy
4:56 PM 25.0 °F - 21.9 °F 88% 29.69 in 10.0 mi Calm Calm - N/A   Scattered Clouds
5:56 PM 21.9 °F - 19.0 °F 89% 29.68 in 10.0 mi Calm Calm - N/A   Scattered Clouds
6:56 PM 26.1 °F 18.4 °F 21.9 °F 84% 29.67 in 10.0 mi East 6.9 mph - N/A   Overcast
7:56 PM 25.0 °F 20.7 °F 21.0 °F 85% 29.67 in 10.0 mi East 3.5 mph - N/A   Clear
8:56 PM 23.0 °F - 19.9 °F 88% 29.65 in 10.0 mi Calm Calm - N/A   Clear
9:56 PM 24.1 °F - 19.9 °F 84% 29.65 in 10.0 mi Calm Calm - N/A   Clear
10:56 PM 19.9 °F - 18.0 °F 92% 29.64 in 10.0 mi Calm Calm - N/A   Clear